Volver al catálogo

STARLINK-34070

ActivoComunicacionesVLEO
NORAD 63913·PAYLOAD·🇺🇸 United States

Lanzado May 10, 2025 desde Cape Canaveral Space Force Station

Loading…

Próximos Pases (próximas 24 horas)

TLE

ActualizadoSource: CelesTrak SupGP

Época: Sep 14, 2026, 21:12 UTC

1 63913C 25095Z   26257.88381944  .00002389  00000+0  86515-4 0  2577
2 63913  42.9999 187.7235 0001318 262.0858  69.0320 15.27584925    12

Sigue STARLINK-34070 en tiempo real con AllMySat

Download on the App Store